,,,PA_Meas_PMT16A,,PR_Meas_QMR101_102,,RH_Meas_QMH101,,SR_Meas_QMS101,,TA_Meas_QMH101,,GenWind,,GenWind,
date,time,status,PA,status,PR,status,RH,status,SR,status,TA,status,DirAvg,status,SpdAvg,
2010-06-12, 00:00:04,VALID,1005.49,VALID,0,VALID,87.5948,VALID,0,VALID,26.1355,VALID,25,VALID,0.507031,
2010-06-12, 00:01:04,VALID,1005.47,VALID,0,VALID,87.7092,VALID,0,VALID,26.116,VALID,44,VALID,0.334766,
2010-06-12, 00:02:04,VALID,1005.44,VALID,0,VALID,87.9762,VALID,0,VALID,26.116,VALID,26,VALID,0.642578,
2010-06-12, 00:03:04,VALID,1005.43,VALID,0,VALID,88.1365,VALID,0,VALID,26.0946,VALID,25,VALID,0.631641,
2010-06-12, 00:04:04,VALID,1005.42,VALID,0,VALID,88.5103,VALID,0,VALID,26.1355,VALID,36,VALID,1.9832,
2010-06-12, 00:05:04,VALID,1005.39,VALID,0,VALID,88.2585,VALID,0.100563,VALID,26.194,VALID,31,VALID,0.953125,
2010-06-12, 00:06:04,VALID,1005.38,VALID,0,VALID,88.1059,VALID,0,VALID,26.2329,VALID,66,VALID,0.992578,
2010-06-12, 00:07:04,VALID,1005.35,VALID,0,VALID,88.0449,VALID,0.100563,VALID,26.2953,VALID,15,VALID,0.966797,
2010-06-12, 00:08:04,VALID,1005.33,VALID,0,VALID,87.9991,VALID,0,VALID,26.2913,VALID,73,VALID,1.02344,
2010-06-12, 00:09:04,VALID,1005.3,VALID,0,VALID,87.8008,VALID,0,VALID,26.3108,VALID,18,VALID,0.48125,
2010-06-12, 00:10:04,VALID,1005.26,VALID,0,VALID,87.7092,VALID,0,VALID,26.3323,VALID,13,VALID,0.698438,
2010-06-12, 00:11:04,VALID,1005.27,VALID,0,VALID,87.8008,VALID,0,VALID,26.3713,VALID,3,VALID,0.628125,
2010-06-12, 00:12:04,VALID,1005.27,VALID,0,VALID,87.755,VALID,0,VALID,26.3518,VALID,8,VALID,0.249609,
2010-06-12, 00:13:04,VALID,1005.27,VALID,0,VALID,87.9228,VALID,0,VALID,26.3498,VALID,19,VALID,0.946875,
2010-06-12, 00:14:04,VALID,1005.29,VALID,0,VALID,87.8313,VALID,0,VALID,26.3907,VALID,44,VALID,0.445313,
2010-06-12, 00:15:04,VALID,1005.26,VALID,0,VALID,87.8847,VALID,0,VALID,26.3887,VALID,353,VALID,0.600781,
2010-06-12, 00:16:04,VALID,1005.26,VALID,0,VALID,88.0068,VALID,0.100563,VALID,26.3887,VALID,18,VALID,0.688281,
2010-06-12, 00:17:04,VALID,1005.23,VALID,0,VALID,87.8923,VALID,0.100563,VALID,26.4102,VALID,18,VALID,0.270312,
2010-06-12, 00:18:04,VALID,1005.24,VALID,0,VALID,87.8694,VALID,0.100563,VALID,26.3887,VALID,18,VALID,0.10625,
2010-06-12, 00:19:04,VALID,1005.25,VALID,0,VALID,87.8542,VALID,0,VALID,26.3907,VALID,18,VALID,0.164453,
2010-06-12, 00:20:04,VALID,1005.27,VALID,0,VALID,87.8923,VALID,0,VALID,26.3498,VALID,18,VALID,0.168359,
2010-06-12, 00:21:04,VALID,1005.26,VALID,0,VALID,88.1365,VALID,0,VALID,26.3108,VALID,17,VALID,0.519531,
2010-06-12, 00:22:04,VALID,1005.28,VALID,0,VALID,88.3272,VALID,0.100563,VALID,26.3323,VALID,66,VALID,0.638672,
2010-06-12, 00:23:04,VALID,1005.28,VALID,0,VALID,88.4035,VALID,0,VALID,26.2913,VALID,61,VALID,0.386719,
2010-06-12, 00:24:04,VALID,1005.26,VALID,0,VALID,88.5103,VALID,0,VALID,26.2913,VALID,22,VALID,0.830078,
2010-06-12, 00:25:04,VALID,1005.25,VALID,0,VALID,88.8154,VALID,0,VALID,26.2933,VALID,358,VALID,0.883984,
2010-06-12, 00:26:04,VALID,1005.25,VALID,0,VALID,88.8383,VALID,0,VALID,26.3108,VALID,17,VALID,0.899609,
2010-06-12, 00:27:04,VALID,1005.25,VALID,0,VALID,88.7697,VALID,0.100563,VALID,26.3498,VALID,46,VALID,0.536719,
2010-06-12, 00:28:04,VALID,1005.27,VALID,0,VALID,88.7391,VALID,0.100563,VALID,26.3887,VALID,32,VALID,1.30859,
2010-06-12, 00:29:04,VALID,1005.24,VALID,0,VALID,88.4798,VALID,0,VALID,26.4277,VALID,3,VALID,1.2125,
2010-06-12, 00:30:04,VALID,1005.27,VALID,0,VALID,88.4798,VALID,0.100563,VALID,26.4861,VALID,27,VALID,1.79805,
2010-06-12, 00:31:04,VALID,1005.29,VALID,0,VALID,88.1288,VALID,0,VALID,26.5641,VALID,23,VALID,1.26797,
2010-06-12, 00:32:04,VALID,1005.25,VALID,0,VALID,87.8847,VALID,0,VALID,26.603,VALID,7,VALID,0.875,
2010-06-12, 00:33:04,VALID,1005.24,VALID,0,VALID,87.7626,VALID,0.100563,VALID,26.6225,VALID,70,VALID,0.627734,
2010-06-12, 00:34:04,VALID,1005.21,VALID,0,VALID,87.7626,VALID,0,VALID,26.6635,VALID,20,VALID,0.771875,
2010-06-12, 00:35:04,VALID,1005.23,VALID,0,VALID,87.6101,VALID,0.100563,VALID,26.683,VALID,24,VALID,0.649609,
2010-06-12, 00:36:04,VALID,1005.22,VALID,0,VALID,87.5567,VALID,0,VALID,26.6635,VALID,31,VALID,0.527734,
2010-06-12, 00:37:04,VALID,1005.2,VALID,0,VALID,87.549,VALID,0.100563,VALID,26.644,VALID,31,VALID,0.130078,
2010-06-12, 00:38:04,VALID,1005.16,VALID,0,VALID,87.5795,VALID,0,VALID,26.5835,VALID,28,VALID,0.411719,
2010-06-12, 00:39:04,VALID,1005.14,VALID,0,VALID,87.694,VALID,0,VALID,26.5855,VALID,357,VALID,0.729688,
2010-06-12, 00:40:04,VALID,1005.11,VALID,0,VALID,87.7932,VALID,0.100563,VALID,26.5446,VALID,10,VALID,0.546875,
2010-06-12, 00:41:04,VALID,1005.11,VALID,0,VALID,87.9915,VALID,0,VALID,26.5251,VALID,2,VALID,0.593359,
2010-06-12, 00:42:04,VALID,1005.05,VALID,0,VALID,88.1059,VALID,0,VALID,26.4881,VALID,6,VALID,0.440234,
2010-06-12, 00:43:04,VALID,1004.98,VALID,0,VALID,88.5103,VALID,0,VALID,26.4472,VALID,20,VALID,1.14609,
2010-06-12, 00:44:04,VALID,1004.95,VALID,0,VALID,88.5026,VALID,0,VALID,26.4667,VALID,5,VALID,1.01445,
2010-06-12, 00:45:04,VALID,1004.94,VALID,0,VALID,88.4569,VALID,0.100563,VALID,26.4667,VALID,39,VALID,0.733203,
2010-06-12, 00:46:04,VALID,1004.93,VALID,0,VALID,88.3195,VALID,0,VALID,26.4861,VALID,37,VALID,0.582812,
2010-06-12, 00:47:04,VALID,1004.92,VALID,0,VALID,88.2967,VALID,0.100563,VALID,26.4667,VALID,37,VALID,0.437109,
2010-06-12, 00:48:04,VALID,1004.9,VALID,0,VALID,88.3424,VALID,0,VALID,26.4297,VALID,37,VALID,0.264844,
2010-06-12, 00:49:04,VALID,1004.85,VALID,0,VALID,88.6247,VALID,0,VALID,26.3693,VALID,352,VALID,0.560156,
2010-06-12, 00:50:04,VALID,1004.85,VALID,0,VALID,88.7239,VALID,0,VALID,26.3303,VALID,358,VALID,0.791406,
2010-06-12, 00:51:04,VALID,1004.84,VALID,0,VALID,89.2503,VALID,0,VALID,26.3303,VALID,18,VALID,0.617188,
2010-06-12, 00:52:04,VALID,1004.8,VALID,0,VALID,89.1969,VALID,0.100563,VALID,26.3303,VALID,42,VALID,0.516016,
2010-06-12, 00:53:04,VALID,1004.82,VALID,0,VALID,89.2121,VALID,0,VALID,26.3303,VALID,15,VALID,0.546484,
2010-06-12, 00:54:04,VALID,1004.8,VALID,0,VALID,88.8993,VALID,0.100563,VALID,26.2913,VALID,15,VALID,0.295312,
2010-06-12, 00:55:04,VALID,1004.77,VALID,0,VALID,89.1816,VALID,0,VALID,26.2739,VALID,6,VALID,0.80625,
2010-06-12, 00:56:04,VALID,1004.77,VALID,0,VALID,89.4944,VALID,0,VALID,26.2329,VALID,29,VALID,0.860156,
2010-06-12, 00:57:04,VALID,1004.79,VALID,0,VALID,89.4868,VALID,0,VALID,26.2154,VALID,25,VALID,0.714453,
2010-06-12, 00:58:04,VALID,1004.8,VALID,0,VALID,90.1352,VALID,0,VALID,26.155,VALID,17,VALID,0.996094,
2010-06-12, 00:59:04,VALID,1004.81,VALID,0,VALID,92.7748,VALID,0,VALID,26.2134,VALID,25,VALID,0.758984,
2010-06-12, 01:00:04,VALID,1004.79,VALID,0,VALID,91.2948,VALID,0.100563,VALID,26.2719,VALID,48,VALID,1.21797,
2010-06-12, 01:01:04,VALID,1004.77,VALID,0,VALID,89.9903,VALID,0,VALID,26.3323,VALID,359,VALID,1.23047,
2010-06-12, 01:02:04,VALID,1004.78,VALID,0,VALID,89.5173,VALID,0,VALID,26.4102,VALID,7,VALID,1.01953,
2010-06-12, 01:03:04,VALID,1004.77,VALID,0,VALID,88.9604,VALID,0.100563,VALID,26.4297,VALID,26,VALID,0.841406,
2010-06-12, 01:04:04,VALID,1004.79,VALID,0,VALID,88.8078,VALID,0,VALID,26.4102,VALID,21,VALID,0.398047,
2010-06-12, 01:05:04,VALID,1004.84,VALID,0,VALID,88.8154,VALID,0,VALID,26.3887,VALID,12,VALID,1.11523,
2010-06-12, 01:06:04,VALID,1004.87,VALID,0,VALID,88.9146,VALID,0,VALID,26.3498,VALID,8,VALID,0.827344,
2010-06-12, 01:07:04,VALID,1004.86,VALID,0,VALID,88.9909,VALID,0,VALID,26.3303,VALID,18,VALID,0.655859,
2010-06-12, 01:08:04,VALID,1004.88,VALID,0,VALID,89.0443,VALID,0.100563,VALID,26.3303,VALID,27,VALID,1.34727,
2010-06-12, 01:09:04,VALID,1004.86,VALID,0,VALID,88.9146,VALID,0,VALID,26.3498,VALID,22,VALID,1.19102,
2010-06-12, 01:10:04,VALID,1004.87,VALID,0,VALID,88.5484,VALID,0,VALID,26.3907,VALID,3,VALID,1.51875,
2010-06-12, 01:11:04,VALID,1004.86,VALID,0,VALID,88.2661,VALID,0,VALID,26.3887,VALID,358,VALID,0.826953,
2010-06-12, 01:12:04,VALID,1004.88,VALID,0,VALID,88.1288,VALID,0,VALID,26.4492,VALID,33,VALID,0.3375,
2010-06-12, 01:13:04,VALID,1004.9,VALID,0,VALID,88.0983,VALID,0,VALID,26.3887,VALID,33,VALID,0.780859,
2010-06-12, 01:14:04,VALID,1004.9,VALID,0,VALID,88.1059,VALID,0,VALID,26.3693,VALID,10,VALID,0.930078,
2010-06-12, 01:15:04,VALID,1004.89,VALID,0,VALID,88.289,VALID,0,VALID,26.3108,VALID,9,VALID,0.720312,
2010-06-12, 01:16:04,VALID,1004.9,VALID,0,VALID,88.6552,VALID,0,VALID,26.3148,VALID,26,VALID,1.40117,
2010-06-12, 01:17:04,VALID,1004.85,VALID,0,VALID,88.5713,VALID,0,VALID,26.3538,VALID,4,VALID,1.07266,
2010-06-12, 01:18:04,VALID,1004.83,VALID,0,VALID,88.2814,VALID,0,VALID,26.3538,VALID,357,VALID,0.418359,
2010-06-12, 01:19:04,VALID,1004.82,VALID,0,VALID,88.2051,VALID,0,VALID,26.3323,VALID,3,VALID,0.357031,
2010-06-12, 01:20:04,VALID,1004.83,VALID,0,VALID,88.3806,VALID,0,VALID,26.3343,VALID,12,VALID,0.998828,
2010-06-12, 01:21:04,VALID,1004.8,VALID,0,VALID,88.3958,VALID,0,VALID,26.3128,VALID,20,VALID,0.751562,
2010-06-12, 01:22:04,VALID,1004.78,VALID,0,VALID,88.6094,VALID,0,VALID,26.3343,VALID,31,VALID,1.17305,
2010-06-12, 01:23:04,VALID,1004.78,VALID,0,VALID,88.3195,VALID,0,VALID,26.3343,VALID,18,VALID,0.724219,
2010-06-12, 01:24:04,VALID,1004.75,VALID,0,VALID,88.495,VALID,0,VALID,26.2564,VALID,18,VALID,0.651172,
2010-06-12, 01:25:04,VALID,1004.7,VALID,0,VALID,88.8612,VALID,0,VALID,26.1979,VALID,18,VALID,1.02031,
2010-06-12, 01:26:04,VALID,1004.7,VALID,0,VALID,89.6241,VALID,0,VALID,26.118,VALID,3,VALID,1.03281,
2010-06-12, 01:27:04,VALID,1004.67,VALID,0,VALID,89.7996,VALID,0,VALID,26.0985,VALID,8,VALID,0.867578,
2010-06-12, 01:28:04,VALID,1004.64,VALID,0,VALID,91.1041,VALID,0,VALID,26.1005,VALID,24,VALID,0.824609,
2010-06-12, 01:29:04,VALID,1004.62,VALID,0,VALID,93.2325,VALID,0,VALID,26.118,VALID,26,VALID,1.11289,
2010-06-12, 01:30:04,VALID,1004.58,VALID,0,VALID,90.8447,VALID,0,VALID,26.159,VALID,24,VALID,0.809375,
2010-06-12, 01:31:04,VALID,1004.53,VALID,0,VALID,90.3259,VALID,0.100563,VALID,26.118,VALID,63,VALID,0.878125,
2010-06-12, 01:32:04,VALID,1004.55,VALID,0,VALID,92.3781,VALID,0,VALID,26.0966,VALID,356,VALID,1.29961,
2010-06-12, 01:33:04,VALID,1004.53,VALID,0,VALID,91.722,VALID,0,VALID,26.1355,VALID,28,VALID,1.20547,
2010-06-12, 01:34:04,VALID,1004.49,VALID,0,VALID,90.181,VALID,0,VALID,26.2544,VALID,15,VALID,0.915234,
2010-06-12, 01:35:04,VALID,1004.46,VALID,0,VALID,89.3418,VALID,0,VALID,26.2719,VALID,356,VALID,1.26328,
2010-06-12, 01:36:04,VALID,1004.45,VALID,0,VALID,88.8231,VALID,0,VALID,26.3303,VALID,29,VALID,1.06602,
2010-06-12, 01:37:04,VALID,1004.45,VALID,0,VALID,88.5179,VALID,0,VALID,26.3713,VALID,22,VALID,1.43359,
2010-06-12, 01:38:04,VALID,1004.48,VALID,0,VALID,88.2051,VALID,0,VALID,26.4297,VALID,26,VALID,0.921484,
2010-06-12, 01:39:04,VALID,1004.46,VALID,0,VALID,88.1288,VALID,0,VALID,26.4297,VALID,18,VALID,0.911719,
2010-06-12, 01:40:04,VALID,1004.48,VALID,0,VALID,88.1822,VALID,0,VALID,26.3693,VALID,10,VALID,0.880469,
2010-06-12, 01:41:04,VALID,1004.43,VALID,0,VALID,88.3119,VALID,0.100563,VALID,26.3713,VALID,360,VALID,1.07695,
2010-06-12, 01:42:04,VALID,1004.4,VALID,0,VALID,88.3272,VALID,0,VALID,26.3518,VALID,19,VALID,0.68125,
2010-06-12, 01:43:04,VALID,1004.36,VALID,0,VALID,88.5103,VALID,0,VALID,26.3323,VALID,3,VALID,0.653125,
2010-06-12, 01:44:04,VALID,1004.37,VALID,0,VALID,88.4645,VALID,0,VALID,26.3128,VALID,4,VALID,0.605469,
2010-06-12, 01:45:04,VALID,1004.37,VALID,0,VALID,88.5713,VALID,0.100563,VALID,26.3108,VALID,7,VALID,1.04766,
2010-06-12, 01:46:04,VALID,1004.37,VALID,0,VALID,88.4416,VALID,0,VALID,26.3323,VALID,39,VALID,0.710156,
2010-06-12, 01:47:04,VALID,1004.39,VALID,0,VALID,88.5026,VALID,0,VALID,26.3518,VALID,32,VALID,0.691406,
2010-06-12, 01:48:04,VALID,1004.39,VALID,0,VALID,88.4111,VALID,0,VALID,26.3498,VALID,34,VALID,0.496094,
2010-06-12, 01:49:04,VALID,1004.38,VALID,0,VALID,88.4264,VALID,0,VALID,26.3323,VALID,3,VALID,0.818359,
2010-06-12, 01:50:04,VALID,1004.37,VALID,0,VALID,88.4569,VALID,0,VALID,26.3538,VALID,20,VALID,0.971484,
2010-06-12, 01:51:04,VALID,1004.34,VALID,0,VALID,88.3577,VALID,0.100563,VALID,26.3498,VALID,33,VALID,0.3625,
2010-06-12, 01:52:04,VALID,1004.33,VALID,0,VALID,88.3501,VALID,0.100563,VALID,26.3323,VALID,9,VALID,1.1168,
2010-06-12, 01:53:04,VALID,1004.31,VALID,0,VALID,88.2738,VALID,0,VALID,26.3303,VALID,77,VALID,0.364844,
2010-06-12, 01:54:04,VALID,1004.29,VALID,0,VALID,88.2814,VALID,0,VALID,26.3323,VALID,74,VALID,0.295703,
2010-06-12, 01:55:04,VALID,1004.31,VALID,0,VALID,88.2356,VALID,0.100563,VALID,26.3108,VALID,48,VALID,0.581641,
2010-06-12, 01:56:04,VALID,1004.31,VALID,0,VALID,88.2433,VALID,0,VALID,26.2913,VALID,57,VALID,0.622656,
2010-06-12, 01:57:04,VALID,1004.28,VALID,0,VALID,88.2738,VALID,0,VALID,26.3128,VALID,48,VALID,0.446875,
2010-06-12, 01:58:04,VALID,1004.3,VALID,0,VALID,88.2356,VALID,0.100563,VALID,26.2913,VALID,41,VALID,0.585156,
2010-06-12, 01:59:04,VALID,1004.29,VALID,0,VALID,88.1975,VALID,0,VALID,26.2913,VALID,32,VALID,0.605859,
2010-06-12, 02:00:04,VALID,1004.26,VALID,0,VALID,88.2051,VALID,0,VALID,26.2913,VALID,37,VALID,0.320703,
2010-06-12, 02:01:04,VALID,1004.27,VALID,0,VALID,88.2356,VALID,0,VALID,26.2739,VALID,37,VALID,0.222266,
2010-06-12, 02:02:04,VALID,1004.26,VALID,0,VALID,88.3348,VALID,0,VALID,26.2349,VALID,47,VALID,0.327734,
2010-06-12, 02:03:04,VALID,1004.26,VALID,0,VALID,88.4416,VALID,0,VALID,26.2154,VALID,44,VALID,0.473437,
2010-06-12, 02:04:04,VALID,1004.28,VALID,0,VALID,88.495,VALID,0,VALID,26.1959,VALID,20,VALID,0.273828,
2010-06-12, 02:05:04,VALID,1004.27,VALID,0,VALID,88.5866,VALID,0,VALID,26.1959,VALID,19,VALID,1.01602,
2010-06-12, 02:06:04,VALID,1004.28,VALID,0,VALID,88.4416,VALID,0,VALID,26.2154,VALID,80,VALID,0.532031,
2010-06-12, 02:07:04,VALID,1004.23,VALID,0,VALID,88.2356,VALID,0,VALID,26.2564,VALID,63,VALID,0.907422,
2010-06-12, 02:08:04,VALID,1004.19,VALID,0,VALID,88.0831,VALID,0,VALID,26.2739,VALID,38,VALID,0.603125,
2010-06-12, 02:09:04,VALID,1004.15,VALID,0,VALID,88.0296,VALID,0,VALID,26.2739,VALID,12,VALID,0.370313,
2010-06-12, 02:10:04,VALID,1004.11,VALID,0,VALID,87.9381,VALID,0,VALID,26.2953,VALID,56,VALID,0.923047,
2010-06-12, 02:11:04,VALID,1004.06,VALID,0,VALID,87.8542,VALID,0,VALID,26.2933,VALID,355,VALID,0.694141,
2010-06-12, 02:12:04,VALID,1004.02,VALID,0,VALID,87.755,VALID,0,VALID,26.3538,VALID,28,VALID,0.796484,
2010-06-12, 02:13:04,VALID,1003.99,VALID,0,VALID,87.6787,VALID,0,VALID,26.3128,VALID,11,VALID,0.534766,
2010-06-12, 02:14:04,VALID,1003.95,VALID,0,VALID,87.6253,VALID,0,VALID,26.3343,VALID,1,VALID,0.99375,
2010-06-12, 02:15:04,VALID,1003.92,VALID,0,VALID,87.5872,VALID,0,VALID,26.3128,VALID,3,VALID,1.69961,
2010-06-12, 02:16:04,VALID,1003.89,VALID,0,VALID,87.3125,VALID,0.100563,VALID,26.3907,VALID,21,VALID,1.93047,
2010-06-12, 02:17:04,VALID,1003.91,VALID,0,VALID,86.8777,VALID,0.100563,VALID,26.4881,VALID,11,VALID,1.00312,
2010-06-12, 02:18:04,VALID,1003.9,VALID,0,VALID,86.5878,VALID,0.100563,VALID,26.5076,VALID,11,VALID,0.423047,
2010-06-12, 02:19:04,VALID,1003.89,VALID,0,VALID,86.5496,VALID,0.100563,VALID,26.4667,VALID,58,VALID,0.728516,
2010-06-12, 02:20:04,VALID,1003.92,VALID,0,VALID,86.5573,VALID,0.100563,VALID,26.4472,VALID,8,VALID,0.884766,
2010-06-12, 02:21:04,VALID,1003.95,VALID,0,VALID,86.5573,VALID,0,VALID,26.4881,VALID,33,VALID,0.480859,
2010-06-12, 02:22:04,VALID,1003.95,VALID,0,VALID,86.6107,VALID,0.100563,VALID,26.4472,VALID,13,VALID,0.989453,
2010-06-12, 02:23:04,VALID,1003.96,VALID,0,VALID,86.42,VALID,0.100563,VALID,26.4667,VALID,56,VALID,0.557813,
2010-06-12, 02:24:04,VALID,1003.94,VALID,0,VALID,86.3055,VALID,0,VALID,26.4667,VALID,15,VALID,0.567187,
2010-06-12, 02:25:04,VALID,1003.97,VALID,0,VALID,86.2674,VALID,0.100563,VALID,26.4861,VALID,25,VALID,0.866797,
2010-06-12, 02:26:04,VALID,1003.95,VALID,0,VALID,86.2445,VALID,0,VALID,26.4667,VALID,11,VALID,0.840234,
2010-06-12, 02:27:04,VALID,1003.96,VALID,0,VALID,86.2445,VALID,0,VALID,26.4861,VALID,43,VALID,0.761719,
2010-06-12, 02:28:04,VALID,1003.99,VALID,0,VALID,86.1377,VALID,0.100563,VALID,26.5271,VALID,64,VALID,0.765625,
2010-06-12, 02:29:04,VALID,1003.99,VALID,0,VALID,86.0995,VALID,0,VALID,26.5056,VALID,40,VALID,0.598828,
2010-06-12, 02:30:04,VALID,1003.99,VALID,0,VALID,86.1529,VALID,0,VALID,26.5056,VALID,62,VALID,0.783203,
2010-06-12, 02:31:04,VALID,1003.95,VALID,0,VALID,86.2674,VALID,0,VALID,26.4472,VALID,23,VALID,0.164844,
2010-06-12, 02:32:04,VALID,1003.97,VALID,0,VALID,86.3666,VALID,0,VALID,26.4707,VALID,23,VALID,0.0730469,
2010-06-12, 02:33:04,VALID,1003.97,VALID,0,VALID,86.4657,VALID,0,VALID,26.4102,VALID,23,VALID,0.0769531,
2010-06-12, 02:34:04,VALID,1003.98,VALID,0,VALID,86.6183,VALID,0,VALID,26.3927,VALID,23,VALID,0.178125,
2010-06-12, 02:35:04,VALID,1003.97,VALID,0,VALID,86.8014,VALID,0,VALID,26.3323,VALID,23,VALID,0.00507812,
2010-06-12, 02:36:04,VALID,1003.95,VALID,0,VALID,86.8929,VALID,0,VALID,26.3148,VALID,23,VALID,0,
2010-06-12, 02:37:04,VALID,1003.95,VALID,0,VALID,87.1905,VALID,0,VALID,26.2739,VALID,64,VALID,0.955469,
2010-06-12, 02:38:04,VALID,1003.95,VALID,0,VALID,87.3278,VALID,0,VALID,26.2953,VALID,98,VALID,0.694141,
2010-06-12, 02:39:04,VALID,1003.97,VALID,0,VALID,87.2515,VALID,0,VALID,26.2739,VALID,100,VALID,0.158203,
2010-06-12, 02:40:04,VALID,1003.96,VALID,0,VALID,87.3049,VALID,0,VALID,26.2544,VALID,100,VALID,0.2125,
2010-06-12, 02:41:04,VALID,1003.93,VALID,0,VALID,87.5338,VALID,0,VALID,26.2369,VALID,55,VALID,0.476563,
2010-06-12, 02:42:04,VALID,1003.9,VALID,0,VALID,87.7398,VALID,0,VALID,26.2174,VALID,47,VALID,0.28125,
2010-06-12, 02:43:04,VALID,1003.89,VALID,0,VALID,87.961,VALID,0,VALID,26.1784,VALID,1,VALID,1.24648,
2010-06-12, 02:44:04,VALID,1003.85,VALID,0,VALID,88.0678,VALID,0,VALID,26.1375,VALID,29,VALID,0.550781,
2010-06-12, 02:45:04,VALID,1003.83,VALID,0,VALID,88.3424,VALID,0,VALID,26.0596,VALID,4,VALID,1.0668,
2010-06-12, 02:46:04,VALID,1003.84,VALID,0,VALID,88.6094,VALID,0,VALID,26.0985,VALID,22,VALID,0.920313,
2010-06-12, 02:47:04,VALID,1003.81,VALID,0,VALID,88.4035,VALID,0,VALID,26.0985,VALID,15,VALID,1.01484,
2010-06-12, 02:48:04,VALID,1003.85,VALID,0,VALID,88.7468,VALID,0,VALID,26.1005,VALID,9,VALID,1.55234,
2010-06-12, 02:49:04,VALID,1003.84,VALID,0,VALID,88.9451,VALID,0,VALID,26.0791,VALID,20,VALID,1.21523,
2010-06-12, 02:50:04,VALID,1003.85,VALID,0,VALID,89.1206,VALID,0,VALID,26.0771,VALID,352,VALID,0.969141,
2010-06-12, 02:51:04,VALID,1003.89,VALID,0,VALID,88.762,VALID,0,VALID,26.1765,VALID,37,VALID,1.75117,
2010-06-12, 02:52:04,VALID,1003.94,VALID,0,VALID,88.5026,VALID,0,VALID,26.2544,VALID,9,VALID,1.0168,
2010-06-12, 02:53:04,VALID,1003.95,VALID,0,VALID,88.2967,VALID,0,VALID,26.2953,VALID,22,VALID,1.62969,
2010-06-12, 02:54:04,VALID,1003.98,VALID,0,VALID,88.0983,VALID,0,VALID,26.3128,VALID,40,VALID,1.2957,
2010-06-12, 02:55:04,VALID,1003.95,VALID,0,VALID,88.434,VALID,0,VALID,26.2933,VALID,3,VALID,1.38477,
2010-06-12, 02:56:04,VALID,1003.91,VALID,0,VALID,88.3043,VALID,0,VALID,26.157,VALID,59,VALID,1.32344,
2010-06-12, 02:57:04,VALID,1003.87,VALID,0,VALID,87.7626,VALID,0,VALID,26.0401,VALID,15,VALID,2.29102,
2010-06-12, 02:58:04,VALID,1003.83,VALID,0,VALID,87.3354,VALID,0,VALID,26.0031,VALID,40,VALID,1.28203,
2010-06-12, 02:59:04,VALID,1003.76,VALID,0.5,VALID,87.4193,VALID,0,VALID,25.9447,VALID,349,VALID,1.48125,
2010-06-12, 03:00:04,VALID,1003.73,VALID,0,VALID,87.8389,VALID,0,VALID,25.9232,VALID,357,VALID,1.88008,
2010-06-12, 03:01:04,VALID,1003.74,VALID,0,VALID,87.8389,VALID,0,VALID,25.9232,VALID,38,VALID,1.30977,
2010-06-12, 03:02:04,VALID,1003.77,VALID,0,VALID,87.9686,VALID,0,VALID,25.9622,VALID,18,VALID,1.6,
2010-06-12, 03:03:04,VALID,1003.74,VALID,0,VALID,87.961,VALID,0,VALID,25.9018,VALID,356,VALID,1.86328,
2010-06-12, 03:04:04,VALID,1003.77,VALID,0,VALID,88.434,VALID,0,VALID,25.9232,VALID,7,VALID,0.734375,
2010-06-12, 03:05:04,VALID,1003.78,VALID,0,VALID,88.5789,VALID,0,VALID,25.8648,VALID,35,VALID,1.36797,
2010-06-12, 03:06:04,VALID,1003.79,VALID,0,VALID,88.968,VALID,0,VALID,25.8259,VALID,50,VALID,0.951172,
2010-06-12, 03:07:04,VALID,1003.79,VALID,0,VALID,88.9756,VALID,0,VALID,25.785,VALID,72,VALID,1.42227,
2010-06-12, 03:08:04,VALID,1003.75,VALID,0,VALID,89.1511,VALID,0,VALID,25.7655,VALID,97,VALID,0.783594,
2010-06-12, 03:09:04,VALID,1003.76,VALID,0,VALID,89.3189,VALID,0,VALID,25.7674,VALID,59,VALID,0.628125,
2010-06-12, 03:10:04,VALID,1003.77,VALID,0,VALID,89.5325,VALID,0,VALID,25.7265,VALID,87,VALID,0.998828,
2010-06-12, 03:11:04,VALID,1003.75,VALID,0,VALID,89.8301,VALID,0,VALID,25.7071,VALID,10,VALID,0.780078,
2010-06-12, 03:12:04,VALID,1003.75,VALID,0,VALID,91.0202,VALID,0,VALID,25.709,VALID,88,VALID,0.698828,
2010-06-12, 03:13:04,VALID,1003.75,VALID,0,VALID,93.1257,VALID,0,VALID,25.709,VALID,71,VALID,1.75156,
2010-06-12, 03:14:04,VALID,1003.75,VALID,0,VALID,94.3769,VALID,0,VALID,25.7265,VALID,108,VALID,1.06133,
2010-06-12, 03:15:04,VALID,1003.79,VALID,0,VALID,94.1633,VALID,0,VALID,25.7265,VALID,71,VALID,1.75742,
2010-06-12, 03:16:04,VALID,1003.78,VALID,0,VALID,93.1715,VALID,0,VALID,25.7071,VALID,97,VALID,1.97656,
2010-06-12, 03:17:04,VALID,1003.73,VALID,0,VALID,89.7233,VALID,0,VALID,25.7285,VALID,71,VALID,2.42969,
2010-06-12, 03:18:04,VALID,1003.73,VALID,0,VALID,89.708,VALID,0,VALID,25.7285,VALID,62,VALID,1.35352,
2010-06-12, 03:19:04,VALID,1003.76,VALID,0.5,VALID,89.0214,VALID,0.100563,VALID,25.709,VALID,64,VALID,1.18438,
2010-06-12, 03:20:04,VALID,1003.75,VALID,0,VALID,89.5783,VALID,0,VALID,25.6506,VALID,19,VALID,1.13516,
2010-06-12, 03:21:04,VALID,1003.76,VALID,0,VALID,90.1734,VALID,0,VALID,25.5902,VALID,11,VALID,1.29609,
2010-06-12, 03:22:04,VALID,1003.8,VALID,0,VALID,91.9967,VALID,0,VALID,25.5727,VALID,36,VALID,0.671875,
2010-06-12, 03:23:04,VALID,1003.82,VALID,0,VALID,93.9344,VALID,0,VALID,25.5123,VALID,32,VALID,0.859375,
2010-06-12, 03:24:04,VALID,1003.76,VALID,0,VALID,94.621,VALID,0,VALID,25.5142,VALID,16,VALID,1.33164,
2010-06-12, 03:25:04,VALID,1003.75,VALID,0,VALID,95.1169,VALID,0,VALID,25.4539,VALID,49,VALID,0.330469,
2010-06-12, 03:26:04,VALID,1003.77,VALID,0,VALID,95.5899,VALID,0,VALID,25.4539,VALID,16,VALID,1.27266,
2010-06-12, 03:27:04,VALID,1003.8,VALID,0,VALID,95.8798,VALID,0,VALID,25.4344,VALID,33,VALID,0.843359,
2010-06-12, 03:28:04,VALID,1003.8,VALID,0,VALID,96.0857,VALID,0,VALID,25.4344,VALID,37,VALID,1.14297,
2010-06-12, 03:29:04,VALID,1003.82,VALID,0,VALID,96.2612,VALID,0.100563,VALID,25.3955,VALID,13,VALID,0.856641,
2010-06-12, 03:30:04,VALID,1003.81,VALID,0,VALID,96.4138,VALID,0,VALID,25.4169,VALID,68,VALID,0.490625,
2010-06-12, 03:31:04,VALID,1003.82,VALID,0,VALID,96.5359,VALID,0,VALID,25.337,VALID,49,VALID,0.572266,
2010-06-12, 03:32:04,VALID,1003.8,VALID,0,VALID,96.6121,VALID,0,VALID,25.3176,VALID,4,VALID,0.706641,
2010-06-12, 03:33:04,VALID,1003.8,VALID,0,VALID,96.7189,VALID,0,VALID,25.3409,VALID,30,VALID,0.9125,
2010-06-12, 03:34:04,VALID,1003.82,VALID,0,VALID,96.8029,VALID,0,VALID,25.3,VALID,5,VALID,0.745313,
2010-06-12, 03:35:04,VALID,1003.81,VALID,0,VALID,96.902,VALID,0,VALID,25.2806,VALID,28,VALID,1.33672,
2010-06-12, 03:36:04,VALID,1003.8,VALID,0,VALID,96.9554,VALID,0,VALID,25.2806,VALID,10,VALID,0.802344,
2010-06-12, 03:37:04,VALID,1003.83,VALID,0,VALID,96.9936,VALID,0,VALID,25.3,VALID,17,VALID,1.46836,
2010-06-12, 03:38:04,VALID,1003.81,VALID,0,VALID,97.0241,VALID,0,VALID,25.3195,VALID,11,VALID,0.994922,
2010-06-12, 03:39:04,VALID,1003.81,VALID,0,VALID,96.9631,VALID,0,VALID,25.3584,VALID,27,VALID,0.649219,
2010-06-12, 03:40:04,VALID,1003.81,VALID,0,VALID,96.8868,VALID,0,VALID,25.3993,VALID,14,VALID,1.1707,
2010-06-12, 03:41:04,VALID,1003.83,VALID,0,VALID,96.8563,VALID,0,VALID,25.4169,VALID,14,VALID,1.77969,
2010-06-12, 03:42:04,VALID,1003.81,VALID,0,VALID,96.6579,VALID,0,VALID,25.5142,VALID,44,VALID,0.562891,
2010-06-12, 03:43:04,VALID,1003.83,VALID,0,VALID,96.4825,VALID,0,VALID,25.5142,VALID,16,VALID,0.326172,
2010-06-12, 03:44:04,VALID,1003.83,VALID,0,VALID,96.4672,VALID,0,VALID,25.4948,VALID,16,VALID,0.327734,